Terug naar catalogus

SL-16 DEB

ActiefLEO
NORAD 43375·DEBRIS·🇷🇺 Russia

Gelanceerd Jun 29, 2007 vanaf Baikonur Cosmodrome

Loading…

Volgende Passages (komende 24 uur)

TLE

VerouderendSource: Space-Track

Epoch: Sep 10, 2026, 05:11 UTC

1 43375U 07029S   26253.21661201  .00002260  00000-0  10663-2 0  9995
2 43375  70.8837  86.9140 0100014 200.3701 282.7962 14.18291345656162

Volg SL-16 DEB in realtime met AllMySat

Download on the App Store